Location: Mococo
(38.0255°N, 122.1161°W)
Time: 03:03:19
(UTC+00:00)

Cosmos 1025 Rocket - Pass Details

Date: 13 February 2026
Orbit: 587 x 609 km, 82.5° (Epoch: 7 March)

Event Time Altitude Azimuth Distance (km) Brightness Sun altitude
Rises 13:58:44 0° 342° (NNW) 2,876 6.2 -12.8°
Reaches altitude 10° 14:01:06 10° 334° (NNW) 1,966 5.3 -12.3°
Maximum altitude 14:05:02 34° 269° (W) 1,002 3.6 -11.5°
Drops below altitude 10° 14:08:55 10° 204° (SSW) 1,945 5.5 -10.8°
Sets 14:11:16 0° 195° (SSW) 2,840 6.4 -10.3°
